Weather History for KBDH - April, 2014

Change the Weather History Date:

Thursday, April 10, 2014

  Actual Average (KLJF) Record (KLJF)
Temperature  
Mean Temperature 48 °F -  
Max Temperature 60 °F 53 °F 86 °F (1977)
Min Temperature 37 °F 30 °F 15 °F (1989)
Degree Days  
Heating Degree Days 16    
Moisture  
Dew Point 27 °F    
Average Humidity 47    
Maximum Humidity 81    
Minimum Humidity 20    
Precipitation  
Precipitation 0.01 in - - ()
Sea Level Pressure  
Sea Level Pressure 29.83 in    
Wind  
Wind Speed 15 mph (WNW)    
Max Wind Speed 29 mph    
Max Gust Speed 37 mph    
Visibility 10 miles    
Events Rain    
Averages and records for this station are not official NWS values.
T = Trace of Precipitation, MM = Missing Value Source: NWS Daily Summary

Daily Weather History Graph

Daily Weather History Graph

Search for Another Location

Airport or City:

Trip Planner

Search our weather history database for the weather conditions in past years. The results will help you decide how hot, cold, wet, or windy it might be!

Date:

Astronomy

Apr. 10, 2014 Rise Set
Actual Time 6:44 AM CDT 7:59 PM CDT
Civil Twilight 6:14 AM CDT 8:30 PM CDT
Nautical Twilight 5:37 AM CDT 9:06 PM CDT
Astronomical Twilight 4:59 AM CDT 9:45 PM CDT
Moon 3:33 PM CDT (4/10) 4:19 AM CDT (4/10)
Length of Visible Light 14h 16m
Length of Day
13h 15m
Waxing Gibbous, 80% of the Moon is Illuminated
Apr 10
Waxing Gibbous
Apr 15
Full
Apr 22
Last Quarter
Apr 29
New
May 6
First Quarter

Hourly Weather History & Observations

Time (CDT) Temp. Windchill Dew Point Humidity Pressure Visibility Wind Dir Wind Speed Gust Speed Precip Events Conditions
12:15 AM 53.6 °F - 37.4 °F 54% 29.66 in 10.0 mi NNW 24.2 mph 29.9 mph N/A   Mostly Cloudy
12:36 AM 51.8 °F - 37.4 °F 58% 29.66 in 10.0 mi NNW 18.4 mph 26.5 mph N/A   Mostly Cloudy
12:55 AM 51.8 °F - 35.6 °F 54% 29.68 in 10.0 mi NNW 19.6 mph 25.3 mph N/A   Scattered Clouds
1:15 AM 50.0 °F - 33.8 °F 54% 29.70 in 10.0 mi NNW 15.0 mph - N/A   Scattered Clouds
1:36 AM 50.0 °F - 33.8 °F 54% 29.72 in 10.0 mi NW 13.8 mph - N/A   Scattered Clouds
1:55 AM 48.2 °F - 35.6 °F 62% 29.70 in 10.0 mi NNW 9.2 mph - N/A Rain Light Rain
2:16 AM 48.2 °F - 35.6 °F 62% 29.71 in 10.0 mi NW 9.2 mph - N/A   Scattered Clouds
2:35 AM 48.2 °F - 37.4 °F 66% 29.73 in 10.0 mi NNW 12.7 mph - N/A   Scattered Clouds
2:56 AM 48.2 °F - 37.4 °F 66% 29.71 in 10.0 mi WNW 4.6 mph - N/A   Scattered Clouds
3:15 AM 48.2 °F - 37.4 °F 66% 29.72 in 10.0 mi NW 11.5 mph - N/A   Clear
3:35 AM 46.4 °F 41.1 °F 35.6 °F 66% 29.71 in 10.0 mi NNW 11.5 mph - N/A   Clear
3:55 AM 44.6 °F 39.7 °F 35.6 °F 71% 29.73 in 10.0 mi NW 9.2 mph - N/A   Clear
4:15 AM 46.4 °F 41.5 °F 35.6 °F 66% 29.74 in 10.0 mi NW 10.4 mph - N/A   Clear
4:35 AM 44.6 °F 39.7 °F 35.6 °F 71% 29.74 in 10.0 mi NW 9.2 mph - N/A   Clear
4:56 AM 44.6 °F 38.8 °F 35.6 °F 71% 29.75 in 10.0 mi WNW 11.5 mph - N/A   Clear
5:15 AM 42.8 °F 38.0 °F 35.6 °F 76% 29.75 in 10.0 mi WNW 8.1 mph - N/A   Clear
5:36 AM 41.0 °F 35.2 °F 33.8 °F 76% 29.75 in 10.0 mi WNW 9.2 mph - N/A   Clear
5:55 AM 39.2 °F 32.5 °F 33.8 °F 81% 29.76 in 10.0 mi WNW 10.4 mph - N/A   Clear
6:16 AM 39.2 °F 33.6 °F 32.0 °F 75% 29.77 in 10.0 mi WNW 8.1 mph - N/A   Clear
6:35 AM 39.2 °F 33.6 °F 32.0 °F 75% 29.78 in 10.0 mi WNW 8.1 mph - N/A   Clear
6:56 AM 39.2 °F 35.0 °F 30.2 °F 70% 29.79 in 10.0 mi WNW 5.8 mph - N/A   Clear
7:15 AM 39.2 °F 34.2 °F 30.2 °F 70% 29.80 in 10.0 mi West 6.9 mph - N/A   Clear
7:35 AM 39.2 °F 33.6 °F 30.2 °F 70% 29.80 in 10.0 mi West 8.1 mph - N/A   Clear
7:56 AM 41.0 °F 35.8 °F 30.2 °F 65% 29.81 in 10.0 mi West 8.1 mph - N/A   Clear
8:15 AM 41.0 °F 35.8 °F 30.2 °F 65% 29.81 in 10.0 mi WNW 8.1 mph - N/A   Clear
8:36 AM 42.8 °F 37.0 °F 32.0 °F 66% 29.83 in 10.0 mi WNW 10.4 mph - N/A   Clear
8:55 AM 44.6 °F 38.4 °F 30.2 °F 57% 29.83 in 10.0 mi WNW 12.7 mph - N/A   Clear
9:15 AM 46.4 °F 39.8 °F 30.2 °F 53% 29.83 in 10.0 mi NW 16.1 mph 19.6 mph N/A   Clear
9:36 AM 48.2 °F - 28.4 °F 46% 29.83 in 10.0 mi NW 16.1 mph 21.9 mph N/A   Clear
9:55 AM 48.2 °F - 28.4 °F 46% 29.83 in 10.0 mi NW 19.6 mph - N/A   Clear
10:16 AM 50.0 °F - 28.4 °F 43% 29.84 in 10.0 mi NW 16.1 mph 26.5 mph N/A   Clear
10:35 AM 51.8 °F - 28.4 °F 41% 29.85 in 10.0 mi WNW 18.4 mph 23.0 mph N/A   Clear
10:56 AM 53.6 °F - 26.6 °F 35% 29.86 in 10.0 mi WNW 17.3 mph 25.3 mph N/A   Clear
11:15 AM 53.6 °F - 26.6 °F 35% 29.87 in 10.0 mi WNW 16.1 mph 21.9 mph N/A   Clear
11:35 AM 55.4 °F - 21.2 °F 26% 29.87 in 10.0 mi NW 24.2 mph 29.9 mph N/A   Clear
11:56 AM 55.4 °F - 21.2 °F 26% 29.87 in 10.0 mi NW 17.3 mph 26.5 mph N/A   Clear
12:16 PM 57.2 °F - 17.6 °F 21% 29.87 in 10.0 mi NW 23.0 mph 28.8 mph N/A   Clear
12:35 PM 57.2 °F - 19.4 °F 23% 29.87 in 10.0 mi NNW 24.2 mph 27.6 mph N/A   Clear
12:56 PM 57.2 °F - 19.4 °F 23% 29.88 in 10.0 mi NW 23.0 mph 31.1 mph N/A   Clear
1:15 PM 57.2 °F - 19.4 °F 23% 29.87 in 10.0 mi NW 23.0 mph 35.7 mph N/A   Clear
1:35 PM 57.2 °F - 19.4 °F 23% 29.88 in 10.0 mi NW 17.3 mph 31.1 mph N/A   Clear
1:56 PM 57.2 °F - 19.4 °F 23% 29.88 in 10.0 mi NW 20.7 mph 29.9 mph N/A   Clear
2:15 PM 57.2 °F - 17.6 °F 21% 29.88 in 10.0 mi WNW 19.6 mph 27.6 mph N/A   Clear
2:35 PM 59.0 °F - 19.4 °F 22% 29.88 in 10.0 mi NW 23.0 mph 29.9 mph N/A   Clear
2:56 PM 59.0 °F - 17.6 °F 20% 29.87 in 10.0 mi NW 28.8 mph 36.8 mph N/A   Clear
3:15 PM 59.0 °F - 17.6 °F 20% 29.87 in 10.0 mi WNW 18.4 mph 27.6 mph N/A   Clear
3:36 PM 59.0 °F - 19.4 °F 22% 29.87 in 10.0 mi WNW 23.0 mph 27.6 mph N/A   Clear
3:55 PM 59.0 °F - 19.4 °F 22% 29.87 in 10.0 mi WNW 23.0 mph 36.8 mph N/A   Clear
4:15 PM 59.0 °F - 19.4 °F 22% 29.87 in 10.0 mi WNW 23.0 mph 32.2 mph N/A   Clear
4:36 PM 59.0 °F - 19.4 °F 22% 29.87 in 10.0 mi NW 24.2 mph 29.9 mph N/A   Clear
4:55 PM 59.0 °F - 19.4 °F 22% 29.87 in 10.0 mi WNW 24.2 mph 29.9 mph N/A   Clear
5:15 PM 59.0 °F - 21.2 °F 23% 29.88 in 10.0 mi WNW 23.0 mph 31.1 mph N/A   Clear
5:36 PM 60.8 °F - 21.2 °F 22% 29.88 in 10.0 mi NW 24.2 mph 27.6 mph N/A   Clear
5:55 PM 59.0 °F - 19.4 °F 22% 29.88 in 10.0 mi NW 23.0 mph 28.8 mph N/A   Clear
6:15 PM 57.2 °F - 19.4 °F 23% 29.89 in 10.0 mi WNW 17.3 mph 25.3 mph N/A   Clear
6:36 PM 57.2 °F - 19.4 °F 23% 29.89 in 10.0 mi WNW 17.3 mph 23.0 mph N/A   Clear
6:55 PM 57.2 °F - 19.4 °F 23% 29.89 in 10.0 mi NW 15.0 mph 20.7 mph N/A   Clear
7:15 PM 55.4 °F - 21.2 °F 26% 29.89 in 10.0 mi NW 13.8 mph - N/A   Clear
7:36 PM 53.6 °F - 21.2 °F 28% 29.89 in 10.0 mi WNW 8.1 mph - N/A   Clear
7:55 PM 53.6 °F - 23.0 °F 30% 29.90 in 10.0 mi WNW 8.1 mph - N/A   Clear
8:15 PM 51.8 °F - 24.8 °F 35% 29.90 in 10.0 mi West 4.6 mph - N/A   Clear
8:36 PM 48.2 °F - 24.8 °F 40% 29.90 in 10.0 mi West 3.5 mph - N/A   Clear
8:55 PM 48.2 °F - 26.6 °F 43% 29.91 in 10.0 mi WSW 3.5 mph - N/A   Clear
9:15 PM 46.4 °F 45.2 °F 26.6 °F 46% 29.92 in 10.0 mi SW 3.5 mph - N/A   Clear
9:36 PM 46.4 °F 42.9 °F 26.6 °F 46% 29.93 in 10.0 mi SW 6.9 mph - N/A   Clear
9:55 PM 42.8 °F - 28.4 °F 57% 29.93 in 10.0 mi Calm Calm - 0.01 in   Clear
10:15 PM 39.2 °F - 28.4 °F 65% 29.93 in 10.0 mi Calm Calm - N/A   Clear
10:36 PM 39.2 °F - 28.4 °F 65% 29.93 in 10.0 mi Calm Calm - N/A   Clear
10:55 PM 37.4 °F - 28.4 °F 70% 29.93 in 10.0 mi Calm Calm - N/A   Clear
11:15 PM 37.4 °F - 28.4 °F 70% 29.93 in 10.0 mi Calm Calm - N/A   Clear
11:36 PM 37.4 °F - 28.4 °F 70% 29.94 in 10.0 mi Calm Calm - N/A   Clear
11:55 PM 37.4 °F - 28.4 °F 70% 29.93 in 10.0 mi Calm Calm - N/A   Clear